Temp
73 75 75 73 77 59 66 68 61 67 74 71 60 58 58 58 57 54 61 57 61 69 70 69 71 71 71 71 71 72 74 76 77 76 77 79 80 80 80 80 82 82 83 83 83 83 84 84 84 84 83 83 83 83 82 82 82 83 83 82 83 83 83
71 75 78 76 74 76 69 61 68 71 75 72 63 53 55 55 51 55 58 56 57 58 59 66 68 68 68 69 69 71 72 75 75 77 78 79 80 80 80 81 81 82 82 82 83 84 85 85 85 85 83 85 84 84 84 83 82 82 84 84 84 84 83
70 76 76 72 74 77 73 69 77 67 56 56 60 57 49 50 50 55 58 58 56 59 61 65 65 66 66 67 69 70 70 72 75 78 78 77 80 80 80 81 81 82 82 82 82 83 84 84 84 85 85 86 85 85 86 86 84 85 86 87 86 85 85
71 73 73 60 66 74 74 76 71 71 66 55 48 55 58 60 53 52 55 57 57 61 63 65 66 69 68 67 68 69 69 71 74 74 73 73 76 78 80 81 82 82 83 84 84 84 83 83 85 86 86 86 85 85 84 85 86 86 85 86 85 84 86
70 60 67 61 65 65 67 68 65 67 67 67 61 59 56 58 55 55 54 54 59 62 66 66 66 69 71 70 68 69 69 71 72 73 72 72 75 77 81 82 83 83 83 85 86 84 84 84 85 87 87 85 86 86 85 86 85 86 86 86 85 85 86
63 65 70 70 71 72 70 68 65 67 64 58 53 49 65 64 59 51 56 51 61 64 69 68 69 71 72 73 71 70 71 70 71 72 73 72 73 77 80 83 84 85 84 85 86 85 85 84 84 86 86 86 85 84 84 84 84 84 84 86 85 84 84
65 67 70 71 70 73 66 71 65 70 68 64 58 49 58 64 64 65 63 57 57 65 68 69 70 71 73 74 73 71 72 73 72 72 73 73 74 76 80 83 85 85 85 85 85 84 83 82 82 83 84 83 83 83 83 83 83 83 84 85 87 85 84
68 69 71 72 72 73 69 70 71 71 67 68 64 62 61 60 61 60 60 55 60 65 68 69 71 72 74 75 75 72 72 73 74 73 72 72 73 75 79 83 85 84 85 85 84 83 82 81 81 82 82 82 83 83 83 83 83 83 84 85 86 84 84
61 64 68 69 70 70 67 66 66 66 66 66 65 65 65 57 62 62 55 52 61 64 69 70 72 73 73 73 74 76 73 73 75 76 75 72 73 74 77 79 82 83 84 83 82 82 81 81 82 81 81 81 82 82 82 82 83 85 85 86 86 85 85
48 47 48 50 51 56 62 66 65 65 63 62 60 58 59 52 59 60 58 59 64 67 67 67 69 71 70 73 73 75 75 75 75 76 75 73 73 74 76 78 80 81 81 81 81 81 81 82 83 81 81 82 82 82 82 83 83 84 84 84 84 83 83
54 54 54 57 59 60 57 59 63 63 62 62 65 65 61 57 61 60 62 60 63 62 63 63 66 69 69 70 71 71 72 73 76 76 75 73 73 73 75 77 79 79 79 79 80 80 81 83 84 83 82 82 82 82 82 83 83 83 83 83 82 82 83
57 57 56 59 59 55 56 56 58 63 62 61 62 62 61 61 62 59 60 59 60 59 61 61 63 67 69 70 71 70 71 70 72 75 74 74 74 73 74 76 77 78 78 79 80 80 81 82 83 83 83 83 82 82 82 83 83 83 83 82 82 82 82
59 60 57 58 58 56 58 59 57 56 61 62 62 60 60 60 62 61 59 60 58 58 60 61 62 63 65 68 70 70 70 70 71 73 72 72 73 73 74 74 76 77 78 78 79 80 81 82 82 83 83 84 83 82 83 82 83 82 83 82 81 81 81
57 56 56 57 56 56 59 58 59 57 57 61 62 61 60 60 60 62 61 61 58 60 61 62 63 65 66 67 70 71 70 69 68 69 71 71 69 72 73 73 74 75 77 78 78 79 80 80 81 83 83 82 83 83 82 82 82 82 82 81 81 81 81
54 55 56 58 56 56 56 58 59 57 55 60 63 63 63 64 63 63 61 59 56 61 64 63 66 68 69 69 68 67 67 68 66 65 65 66 68 69 70 70 71 72 74 76 78 78 79 80 80 81 81 81 82 82 82 82 81 82 82 81 81 81 80
54 56 55 53 56 58 56 55 56 54 53 52 61 59 62 62 58 59 61 58 56 60 64 65 65 66 65 64 65 65 66 66 66 65 65 65 65 66 67 68 70 72 74 75 75 76 77 79 81 81 80 81 82 81 82 82 81 82 81 81 81 81 81
55 57 55 55 57 59 54 52 54 54 54 55 62 63 62 61 64 60 57 55 60 62 64 62 62 64 63 63 63 65 66 66 65 64 65 65 66 66 66 67 69 70 71 72 73 74 75 76 77 79 80 81 80 81 81 82 82 81 81 81 81 81 81
55 55 57 56 57 49 46 58 60 56 52 53 53 55 57 59 62 59 61 60 63 63 62 60 61 62 61 61 63 65 64 64 64 65 65 65 66 67 67 68 69 70 71 72 73 74 75 76 76 77 79 79 79 80 80 80 80 80 80 80 81 81 81
52 55 55 53 44 47 60 59 58 58 58 56 53 55 57 58 60 64 63 62 61 62 61 61 62 62 63 64 64 64 66 66 64 64 64 64 65 65 66 67 67 68 70 71 72 74 75 75 75 76 77 78 78 78 79 79 79 79 79 79 79 79 79
55 53 50 42 42 55 59 60 60 61 58 58 56 54 56 57 58 59 61 62 63 62 62 63 64 65 66 66 64 64 64 65 64 63 63 64 64 64 64 65 65 66 67 68 69 71 72 73 75 75 75 77 78 77 78 78 78 79 78 77 77 78 77
51 51 51 49 52 54 57 56 59 58 54 55 53 50 54 57 58 59 61 62 63 63 64 65 66 67 68 63 62 65 64 64 64 64 63 64 63 64 65 65 65 66 67 68 69 69 69 70 70 71 72 72 72 73 75 76 77 77 77 76 76 77 76
57 52 49 49 48 44 51 57 62 62 63 61 59 56 53 59 62 61 62 61 63 65 67 67 67 66 65 58 58 61 64 66 65 65 65 65 65 65 65 66 67 68 69 69 68 68 68 69 70 70 71 71 71 72 73 75 75 74 75 75 76 75 74
55 54 50 46 45 50 56 58 62 63 63 63 61 54 49 57 62 65 64 63 65 66 65 65 66 65 57 55 57 61 65 65 66 65 65 66 65 65 65 65 65 66 67 68 68 68 68 67 68 69 70 71 71 71 71 73 74 75 74 72 72 73 72
56 55 52 49 51 52 58 61 62 64 63 62 61 50 51 59 61 65 66 66 66 64 64 67 67 64 56 55 58 65 66 67 67 66 65 65 66 66 66 67 67 67 67 67 67 66 65 66 68 69 69 69 69 69 69 70 71 72 71 71 72 71 71
55 54 54 55 56 59 59 60 64 64 63 62 55 50 58 61 61 62 65 64 63 64 65 67 60 59 61 61 64 67 69 68 67 68 68 67 67 66 66 66 68 67 67 66 65 65 65 66 67 68 68 67 66 66 66 66 66 66 68 69 70 70 70
56 56 54 54 57 59 60 63 63 63 61 55 55 59 60 60 60 61 64 63 64 66 66 65 62 62 65 66 67 67 67 67 66 68 68 68 68 68 68 68 68 69 69 68 66 65 66 66 67 67 66 65 64 64 64 63 64 67 67 68 68 68 68
53 54 54 50 45 56 61 60 63 63 58 59 60 60 61 64 63 64 65 66 65 67 64 65 64 66 66 66 65 65 66 66 65 66 66 66 67 67 67 68 70 70 69 68 67 66 66 66 66 67 66 65 64 64 63 63 65 65 66 67 67 66 67
55 52 51 50 57 60 62 60 60 62 63 65 64 64 60 63 64 64 63 65 67 68 67 65 65 66 66 66 67 66 66 67 67 67 67 68 69 69 71 71 71 71 69 69 68 68 67 67 66 66 66 64 64 63 63 66 66 66 66 66 66 66 66
57 56 57 59 62 62 64 62 62 62 63 65 66 67 64 61 62 65 64 64 67 69 68 67 67 66 67 68 69 67 65 66 66 65 65 66 67 69 69 69 70 71 71 70 70 69 68 67 66 65 65 64 64 63 64 67 67 67 67 67 66 66 65
59 60 62 62 63 63 63 65 63 64 64 65 68 68 65 65 65 66 65 66 67 68 69 68 67 67 67 67 68 68 68 67 66 67 67 67 68 69 70 69 70 71 71 71 71 70 70 70 68 67 67 67 64 64 67 68 68 67 68 67 67 66 66
55 50 61 61 61 63 64 64 65 66 66 65 67 68 67 67 68 68 69 68 67 68 69 68 66 66 67 67 66 67 67 67 67 67 66 66 66 66 66 67 68 68 70 70 69 69 68 69 70 70 69 70 69 69 69 71 71 70 69 69 68 67 67
57 57 60 61 62 62 63 65 66 65 65 66 67 68 69 69 69 70 69 69 68 70 68 68 67 66 68 67 66 67 68 68 67 67 67 66 65 65 67 67 68 69 68 68 68 68 67 69 69 69 69 69 70 71 72 73 73 72 70 70 69 69 69
57 59 60 61 63 64 64 64 65 66 67 66 67 67 68 68 67 67 69 71 70 70 68 68 67 66 66 67 67 66 66 66 67 67 66 66 67 67 67 66 67 67 67 67 67 68 68 69 70 69 69 70 71 72 73 73 72 71 69 69 69 69 70
56 59 60 62 59 58 63 64 65 64 66 67 67 68 68 68 67 67 67 68 70 70 70 70 70 67 66 66 68 67 66 66 66 67 67 67 68 67 66 67 67 67 67 67 67 67 67 69 69 69 69 70 70 73 72 72 73 71 70 70 69 68 68
61 64 64 64 65 65 66 66 64 65 66 68 67 66 67 68 68 68 68 67 67 67 68 71 71 68 67 66 68 68 67 65 65 66 68 68 67 67 68 68 67 67 67 67 67 66 67 68 69 69 69 70 70 71 71 72 72 72 71 70 70 70 69
62 65 67 65 66 64 64 66 65 65 66 68 66 66 67 68 68 69 69 68 67 66 68 69 70 69 68 69 69 66 65 65 66 66 67 68 68 68 69 69 68 68 68 68 67 66 67 67 68 69 69 69 69 71 71 72 72 71 71 70 69 70 70
66 65 67 65 66 67 67 66 65 66 65 68 67 66 66 67 68 69 68 67 69 69 67 68 69 70 69 69 69 67 66 66 66 66 66 66 67 68 69 69 69 69 68 67 67 67 67 68 68 69 68 68 69 70 71 72 72 71 70 71 70 70 70
MSLP
1012.70 1012.26 1012.34 1013.06 1012.22 1017.54 1015.82 1015.86 1017.62 1015.66 1013.50 1014.74 1018.30 1019.06 1019.18 1019.02 1019.10 1019.38 1017.34 1018.02 1016.22 1014.18 1013.62 1013.78 1013.46 1013.42 1013.50 1013.50 1013.70 1013.90 1013.78 1013.78 1013.90 1014.18 1014.22 1014.22 1014.18 1014.34 1014.54 1014.74 1014.86 1015.06 1015.22 1015.42 1015.50 1015.74 1015.94 1016.14 1016.42 1016.58 1016.78 1016.86 1017.14 1017.50 1017.82 1018.14 1018.22 1018.30 1018.50 1018.66 1018.78 1018.90 1019.10
1012.94 1011.98 1011.62 1012.38 1012.74 1012.74 1015.10 1017.02 1015.18 1014.42 1013.54 1014.50 1016.94 1020.14 1019.66 1019.66 1020.38 1018.70 1018.22 1017.98 1017.34 1017.22 1016.78 1014.94 1014.42 1014.26 1014.22 1014.18 1014.10 1013.94 1013.90 1013.86 1014.14 1013.90 1013.90 1013.94 1013.94 1013.98 1014.02 1014.14 1014.38 1014.62 1014.86 1015.14 1015.30 1015.38 1015.50 1015.70 1015.86 1016.14 1016.46 1016.46 1016.74 1017.06 1017.38 1017.86 1018.10 1018.38 1018.26 1018.38 1018.54 1018.70 1018.98
1013.26 1011.94 1012.14 1013.58 1012.94 1012.26 1013.26 1014.30 1012.42 1015.22 1019.46 1018.90 1018.02 1019.10 1021.46 1020.62 1020.14 1018.46 1017.74 1017.70 1017.94 1017.06 1015.86 1015.22 1015.14 1014.98 1014.82 1014.38 1014.18 1014.30 1014.42 1014.22 1013.86 1013.58 1013.70 1013.82 1013.66 1013.90 1014.22 1014.34 1014.50 1014.62 1014.82 1015.02 1015.14 1015.22 1015.22 1015.38 1015.54 1015.70 1015.94 1016.26 1016.54 1016.86 1017.02 1017.22 1017.66 1017.70 1017.86 1017.90 1018.10 1018.34 1018.50
1013.34 1012.98 1013.06 1016.54 1015.22 1013.14 1012.74 1012.58 1014.22 1014.38 1015.98 1019.22 1021.90 1019.86 1018.18 1016.82 1019.06 1019.38 1017.78 1017.86 1017.42 1016.18 1015.54 1015.14 1014.78 1013.90 1014.06 1014.42 1014.46 1014.18 1014.10 1014.02 1013.70 1013.66 1013.90 1014.18 1014.14 1014.06 1014.06 1014.10 1014.18 1014.26 1014.34 1014.50 1014.74 1014.98 1015.30 1015.42 1015.58 1015.66 1015.86 1016.14 1016.50 1016.66 1016.94 1017.10 1017.18 1017.42 1017.70 1017.90 1018.02 1018.30 1018.30
1013.62 1016.54 1014.82 1016.26 1015.26 1015.18 1015.14 1014.86 1015.98 1015.74 1015.74 1015.98 1017.74 1019.14 1018.94 1017.98 1018.30 1018.46 1018.58 1018.54 1016.38 1015.70 1014.62 1014.78 1014.46 1013.58 1013.14 1013.50 1013.74 1013.54 1013.70 1013.70 1013.54 1013.58 1013.90 1014.06 1013.98 1013.94 1013.78 1013.74 1013.90 1014.06 1014.18 1014.18 1014.34 1014.54 1014.74 1014.94 1015.14 1015.38 1015.66 1016.02 1016.14 1016.34 1016.70 1016.86 1017.30 1017.38 1017.54 1017.58 1017.78 1017.98 1018.02
1015.46 1014.66 1013.38 1013.42 1013.18 1013.18 1013.98 1014.66 1015.70 1015.22 1016.06 1018.34 1019.82 1021.10 1016.54 1016.02 1017.06 1018.78 1018.22 1019.34 1015.90 1015.02 1013.78 1014.02 1013.62 1013.06 1012.58 1012.42 1012.86 1013.10 1012.98 1013.50 1013.50 1013.42 1013.58 1013.74 1013.98 1013.74 1013.46 1013.42 1013.46 1013.66 1013.90 1013.98 1014.10 1014.38 1014.66 1015.10 1015.38 1015.50 1015.50 1015.78 1016.14 1016.38 1016.50 1016.70 1016.94 1017.18 1017.34 1017.46 1017.58 1017.78 1017.86
1015.02 1014.22 1013.34 1013.14 1013.38 1012.82 1014.82 1014.06 1015.66 1014.22 1015.14 1016.18 1017.78 1020.14 1017.42 1015.86 1015.74 1015.34 1015.70 1017.54 1016.66 1014.70 1013.90 1013.46 1013.22 1012.82 1012.18 1011.98 1012.34 1013.10 1013.02 1012.94 1013.14 1013.26 1013.22 1013.50 1013.42 1013.46 1013.26 1013.10 1013.10 1013.30 1013.54 1013.74 1013.90 1014.30 1014.62 1014.90 1015.14 1015.34 1015.54 1015.74 1015.94 1016.18 1016.38 1016.58 1016.82 1017.02 1017.02 1017.14 1017.18 1017.50 1017.78
1014.30 1013.82 1013.42 1013.30 1013.42 1013.06 1014.50 1014.38 1014.22 1014.10 1015.18 1014.86 1015.98 1016.74 1016.94 1017.38 1016.86 1017.14 1016.90 1018.10 1016.06 1014.50 1013.66 1013.30 1012.82 1012.38 1011.86 1011.66 1011.94 1012.66 1012.90 1012.82 1012.86 1013.14 1013.46 1013.54 1013.62 1013.46 1013.14 1012.82 1012.90 1013.14 1013.30 1013.58 1013.94 1014.42 1014.74 1014.98 1015.22 1015.34 1015.42 1015.58 1015.78 1015.98 1016.18 1016.38 1016.70 1016.74 1016.90 1016.98 1017.10 1017.42 1017.66
1015.58 1014.94 1014.22 1014.14 1013.78 1013.86 1015.22 1015.62 1015.38 1015.46 1015.30 1015.46 1015.74 1016.10 1016.26 1018.38 1016.38 1016.58 1018.46 1018.78 1016.14 1014.86 1013.58 1013.34 1012.82 1012.50 1012.54 1012.54 1012.26 1012.10 1012.86 1012.86 1012.78 1012.82 1013.06 1013.50 1013.46 1013.46 1013.38 1013.26 1013.22 1013.30 1013.50 1013.82 1014.06 1014.18 1014.50 1014.70 1014.82 1015.06 1015.30 1015.50 1015.70 1015.90 1016.02 1016.26 1016.34 1016.34 1016.54 1016.66 1016.94 1017.18 1017.42
1019.06 1019.46 1019.74 1019.70 1019.58 1018.18 1016.98 1015.50 1015.74 1015.74 1016.10 1016.06 1017.26 1017.94 1017.38 1019.02 1016.74 1016.86 1017.66 1016.78 1015.22 1014.50 1014.10 1014.14 1013.62 1013.22 1013.34 1012.90 1012.70 1012.34 1012.30 1012.50 1012.66 1012.66 1012.86 1013.34 1013.58 1013.62 1013.46 1013.42 1013.38 1013.54 1013.54 1013.58 1013.86 1014.06 1014.26 1014.38 1014.58 1014.86 1015.02 1015.22 1015.46 1015.66 1015.78 1015.78 1016.10 1016.26 1016.38 1016.50 1016.78 1017.06 1017.26
1017.62 1018.10 1018.78 1018.50 1018.06 1017.86 1018.42 1017.50 1016.38 1016.30 1016.38 1016.42 1015.78 1015.54 1016.66 1017.54 1016.18 1016.66 1015.66 1016.22 1015.70 1015.82 1015.50 1015.42 1014.58 1013.98 1013.90 1013.66 1013.34 1013.34 1013.30 1012.98 1012.46 1012.46 1012.86 1013.30 1013.58 1013.66 1013.62 1013.50 1013.38 1013.46 1013.70 1013.82 1013.78 1013.90 1014.02 1014.14 1014.22 1014.46 1014.74 1015.02 1015.22 1015.42 1015.62 1015.66 1015.78 1016.02 1016.18 1016.42 1016.70 1016.98 1017.14
1018.06 1018.34 1018.70 1018.10 1017.98 1019.30 1019.06 1018.70 1017.98 1016.38 1016.54 1016.90 1016.54 1016.26 1016.26 1015.90 1015.98 1016.30 1016.18 1016.74 1016.18 1016.54 1016.10 1015.90 1015.46 1014.58 1014.10 1013.78 1013.50 1013.62 1013.58 1013.58 1013.18 1012.78 1013.06 1013.30 1013.66 1013.86 1013.74 1013.74 1013.78 1013.82 1013.74 1013.70 1013.82 1013.94 1014.02 1014.10 1014.02 1014.22 1014.34 1014.54 1014.86 1015.10 1015.38 1015.42 1015.58 1015.82 1015.98 1016.26 1016.58 1016.86 1017.06
1017.86 1017.78 1018.42 1017.98 1018.22 1018.94 1018.54 1018.14 1018.26 1018.34 1016.78 1016.46 1016.14 1016.38 1016.70 1016.58 1015.78 1015.66 1016.58 1016.22 1016.62 1016.90 1016.42 1015.98 1015.66 1015.30 1015.02 1014.34 1013.86 1013.78 1013.66 1013.58 1013.46 1013.34 1013.58 1013.74 1013.86 1014.02 1014.06 1014.10 1013.98 1013.94 1013.98 1013.90 1013.82 1013.86 1013.86 1013.90 1014.10 1014.14 1014.30 1014.46 1014.66 1014.94 1015.10 1015.30 1015.46 1015.66 1015.74 1016.14 1016.50 1016.74 1016.98
1018.38 1018.38 1018.34 1017.82 1017.90 1018.46 1017.94 1018.06 1017.90 1018.34 1017.86 1016.70 1016.10 1016.26 1016.30 1016.50 1016.14 1015.78 1016.02 1016.18 1017.06 1016.58 1016.30 1015.94 1015.58 1014.94 1014.70 1014.46 1013.78 1013.74 1014.02 1014.26 1014.18 1013.98 1013.90 1014.18 1014.30 1014.26 1014.42 1014.50 1014.34 1014.18 1014.02 1013.98 1014.02 1013.94 1013.98 1013.98 1014.02 1014.02 1014.14 1014.30 1014.42 1014.66 1014.90 1015.02 1015.26 1015.34 1015.54 1016.02 1016.38 1016.66 1016.90
1018.90 1018.66 1018.26 1017.70 1018.26 1018.62 1018.50 1017.98 1017.94 1018.30 1018.62 1017.38 1015.86 1015.42 1015.58 1015.34 1015.82 1015.82 1016.22 1016.66 1017.10 1016.26 1015.54 1015.70 1015.10 1014.62 1014.30 1014.30 1014.62 1014.70 1014.74 1014.62 1014.90 1015.02 1014.86 1015.06 1015.06 1014.98 1014.98 1014.94 1014.82 1014.54 1014.46 1014.34 1014.18 1014.18 1014.14 1014.02 1013.98 1013.98 1014.02 1014.06 1014.18 1014.38 1014.54 1014.74 1014.98 1015.06 1015.26 1015.74 1016.02 1016.30 1016.54
1018.58 1018.50 1018.50 1018.70 1018.42 1018.14 1018.30 1018.30 1018.30 1018.74 1019.46 1019.46 1016.70 1016.50 1015.58 1015.66 1016.90 1016.38 1016.26 1016.90 1017.30 1016.42 1015.62 1015.42 1015.26 1015.18 1015.34 1015.58 1015.42 1015.34 1015.10 1014.98 1015.06 1015.14 1015.42 1015.62 1015.42 1015.38 1015.38 1015.18 1015.06 1014.82 1014.62 1014.62 1014.66 1014.62 1014.42 1014.22 1014.06 1014.02 1014.06 1014.06 1014.22 1014.38 1014.34 1014.58 1014.70 1014.82 1015.18 1015.50 1015.82 1016.02 1016.10
1017.94 1017.86 1018.46 1018.62 1017.74 1017.34 1018.50 1018.94 1018.66 1019.22 1019.26 1018.90 1016.50 1015.94 1015.74 1016.06 1015.22 1016.02 1016.86 1017.38 1016.30 1016.14 1015.74 1016.14 1016.10 1015.90 1016.22 1016.22 1015.90 1015.58 1015.26 1015.30 1015.34 1015.50 1015.58 1015.66 1015.78 1015.90 1015.78 1015.54 1015.34 1015.22 1015.22 1015.14 1014.98 1014.86 1014.70 1014.58 1014.38 1014.10 1014.02 1014.18 1014.46 1014.54 1014.58 1014.46 1014.50 1014.86 1015.14 1015.34 1015.62 1015.90 1016.02
1017.78 1018.26 1017.94 1018.02 1017.46 1019.58 1020.62 1017.90 1017.70 1018.54 1019.94 1019.46 1019.18 1018.06 1017.46 1016.62 1015.70 1016.30 1015.78 1016.02 1015.82 1015.98 1016.30 1016.62 1016.62 1016.46 1016.74 1016.74 1016.34 1015.62 1015.66 1015.70 1015.70 1015.62 1015.58 1015.62 1015.66 1015.66 1015.62 1015.50 1015.38 1015.34 1015.22 1015.14 1015.02 1014.90 1014.86 1014.66 1014.50 1014.34 1014.06 1014.14 1014.18 1014.18 1014.38 1014.58 1014.86 1015.06 1015.26 1015.42 1015.58 1015.82 1015.98
1018.74 1018.42 1018.26 1017.98 1020.02 1020.14 1017.42 1017.78 1018.14 1018.30 1018.66 1019.02 1019.22 1018.38 1017.58 1017.06 1016.26 1015.38 1015.62 1015.86 1016.22 1016.34 1016.38 1016.54 1016.58 1016.50 1016.34 1016.14 1016.14 1016.06 1015.82 1015.70 1015.90 1016.14 1016.14 1016.10 1016.02 1016.06 1015.94 1015.94 1015.90 1015.86 1015.62 1015.38 1015.22 1014.94 1014.78 1014.86 1014.78 1014.62 1014.50 1014.26 1014.22 1014.34 1014.38 1014.66 1014.82 1015.18 1015.38 1015.58 1015.74 1015.82 1015.98
1018.50 1018.94 1019.46 1020.06 1019.78 1017.98 1017.46 1017.26 1017.42 1017.62 1018.10 1018.18 1018.78 1018.70 1017.78 1017.42 1017.30 1016.70 1015.98 1015.98 1016.18 1016.26 1016.50 1016.38 1016.14 1016.18 1016.18 1016.06 1016.34 1016.42 1016.38 1016.26 1016.38 1016.46 1016.62 1016.58 1016.50 1016.58 1016.50 1016.38 1016.26 1016.18 1015.98 1015.82 1015.54 1015.22 1014.86 1014.90 1014.86 1014.86 1014.94 1014.58 1014.50 1014.66 1014.58 1014.82 1015.02 1015.18 1015.42 1015.66 1015.86 1016.02 1016.26
1018.58 1019.26 1019.30 1019.26 1018.74 1018.14 1017.70 1018.10 1017.54 1017.94 1018.94 1018.70 1019.22 1019.34 1017.98 1017.50 1017.46 1017.14 1016.30 1016.22 1016.30 1016.26 1016.14 1016.10 1016.06 1015.98 1015.74 1016.74 1017.22 1016.74 1016.74 1016.70 1016.62 1016.70 1016.82 1016.78 1016.82 1016.74 1016.62 1016.42 1016.30 1016.02 1015.74 1015.62 1015.42 1015.18 1015.14 1015.02 1015.06 1015.14 1014.98 1015.02 1015.14 1015.06 1015.02 1015.14 1015.34 1015.54 1015.62 1015.94 1016.14 1016.26 1016.34
1017.66 1018.46 1019.90 1019.54 1019.62 1020.02 1018.50 1017.46 1016.94 1017.18 1017.38 1017.86 1018.50 1018.66 1018.70 1017.14 1016.58 1016.82 1016.54 1016.70 1016.78 1015.98 1015.74 1015.94 1015.98 1016.06 1016.46 1018.02 1018.14 1017.62 1017.14 1016.86 1016.90 1016.82 1016.82 1016.78 1016.74 1016.66 1016.58 1016.34 1016.14 1015.94 1015.74 1015.62 1015.50 1015.42 1015.42 1015.38 1015.18 1015.10 1015.14 1015.06 1015.26 1015.30 1015.26 1015.30 1015.66 1015.98 1015.90 1015.94 1015.94 1016.18 1016.50
1018.02 1018.18 1018.66 1019.94 1019.86 1018.54 1017.30 1017.50 1017.06 1016.90 1017.02 1017.30 1017.86 1019.38 1019.98 1018.34 1016.82 1015.94 1016.14 1016.58 1016.02 1015.82 1016.02 1016.14 1015.90 1016.42 1018.14 1018.86 1018.58 1018.02 1017.42 1017.30 1017.06 1017.14 1017.06 1016.90 1016.82 1016.78 1016.66 1016.62 1016.58 1016.34 1016.10 1015.90 1015.74 1015.58 1015.62 1015.74 1015.46 1015.14 1015.14 1015.18 1015.34 1015.66 1015.70 1015.78 1015.86 1016.06 1016.18 1016.34 1016.34 1016.46 1016.90
1017.58 1017.50 1018.22 1018.94 1018.62 1018.30 1017.30 1016.82 1016.74 1016.58 1016.70 1016.86 1017.18 1019.14 1018.90 1017.70 1017.38 1016.18 1015.74 1015.86 1016.02 1016.50 1016.50 1015.86 1015.94 1016.70 1018.42 1018.78 1018.70 1017.86 1017.54 1017.38 1017.34 1017.26 1017.30 1017.18 1017.06 1016.94 1016.78 1016.62 1016.50 1016.42 1016.22 1016.02 1015.90 1015.98 1016.10 1016.06 1015.66 1015.54 1015.58 1015.74 1015.90 1016.02 1016.10 1016.02 1016.18 1016.26 1016.38 1016.46 1016.38 1016.54 1016.82
1017.70 1017.82 1017.98 1018.02 1017.50 1016.94 1017.10 1016.94 1016.42 1016.30 1016.46 1016.74 1017.70 1018.14 1017.02 1016.82 1017.06 1016.86 1016.10 1016.30 1016.58 1016.38 1016.38 1015.90 1017.26 1017.70 1017.74 1017.98 1017.90 1017.54 1017.38 1017.42 1017.46 1017.26 1017.14 1017.22 1017.10 1017.14 1016.98 1016.90 1016.58 1016.50 1016.46 1016.38 1016.46 1016.42 1016.38 1016.22 1016.06 1015.94 1015.98 1016.30 1016.50 1016.46 1016.46 1016.58 1016.78 1016.82 1016.74 1016.62 1016.62 1016.58 1016.82
1017.14 1017.34 1017.66 1017.86 1017.26 1016.94 1017.10 1016.46 1016.46 1016.38 1016.74 1017.50 1017.42 1016.86 1016.94 1016.78 1016.86 1016.70 1016.18 1016.62 1016.58 1016.34 1016.26 1016.62 1017.42 1017.70 1017.54 1017.54 1017.46 1017.54 1017.62 1017.74 1017.74 1017.54 1017.46 1017.30 1017.22 1017.10 1016.98 1016.86 1016.74 1016.74 1016.70 1016.78 1016.82 1016.86 1016.70 1016.58 1016.54 1016.54 1016.58 1016.94 1017.10 1017.02 1017.02 1017.22 1017.22 1016.98 1016.82 1016.78 1016.82 1016.94 1016.98
1018.82 1018.26 1017.70 1018.70 1018.90 1017.42 1017.06 1017.02 1016.50 1016.58 1017.10 1016.70 1016.74 1016.66 1016.58 1016.18 1016.38 1016.34 1016.42 1016.30 1016.50 1016.18 1016.90 1017.06 1017.26 1017.42 1017.54 1017.66 1017.86 1017.94 1017.86 1017.94 1018.10 1018.02 1017.86 1017.70 1017.62 1017.54 1017.34 1017.14 1016.94 1016.86 1017.02 1017.14 1017.22 1017.26 1017.14 1017.02 1016.98 1016.94 1016.90 1017.30 1017.50 1017.50 1017.62 1017.70 1017.46 1017.30 1017.14 1017.10 1017.18 1017.34 1017.34
1017.30 1018.30 1018.22 1018.26 1017.38 1017.22 1016.90 1017.14 1016.94 1016.42 1016.30 1016.02 1016.22 1016.06 1016.94 1016.42 1016.22 1016.58 1016.70 1016.66 1016.46 1016.34 1016.70 1017.26 1017.46 1017.50 1017.66 1017.74 1017.78 1017.94 1018.02 1018.02 1018.06 1018.06 1018.02 1017.86 1017.66 1017.54 1017.38 1017.30 1017.26 1017.02 1017.22 1017.30 1017.46 1017.50 1017.42 1017.38 1017.26 1017.18 1017.10 1017.54 1017.94 1018.06 1018.18 1017.78 1017.54 1017.54 1017.54 1017.58 1017.66 1017.82 1017.78
1017.46 1017.38 1017.38 1017.34 1016.90 1017.02 1016.66 1016.94 1016.86 1016.70 1016.38 1016.10 1015.94 1015.94 1016.46 1016.94 1017.02 1016.54 1016.86 1016.94 1016.62 1016.54 1016.78 1017.18 1017.38 1017.70 1017.58 1017.70 1017.66 1018.06 1018.34 1018.30 1018.38 1018.58 1018.58 1018.34 1018.14 1017.90 1017.86 1017.78 1017.58 1017.38 1017.46 1017.58 1017.58 1017.66 1017.70 1017.74 1017.70 1017.66 1017.70 1017.82 1018.14 1018.30 1018.34 1018.06 1017.90 1017.86 1017.86 1017.82 1017.82 1017.86 1017.78
1017.70 1017.42 1017.10 1017.06 1016.78 1016.82 1016.74 1016.46 1016.66 1016.54 1016.42 1016.18 1015.86 1015.94 1016.50 1016.58 1016.74 1016.58 1016.98 1016.86 1016.94 1017.02 1016.86 1017.22 1017.58 1017.70 1017.82 1017.86 1018.02 1018.10 1018.18 1018.34 1018.54 1018.54 1018.54 1018.46 1018.22 1018.02 1017.90 1017.90 1017.78 1017.66 1017.62 1017.62 1017.70 1017.90 1017.98 1017.94 1017.98 1018.06 1018.10 1018.14 1018.50 1018.70 1018.42 1018.30 1018.26 1018.06 1018.10 1018.38 1018.50 1018.46 1018.38
1017.74 1018.70 1017.22 1017.22 1017.30 1016.94 1016.70 1016.62 1016.50 1016.34 1016.14 1016.22 1016.10 1016.10 1016.26 1016.58 1016.46 1016.58 1016.62 1016.86 1017.14 1017.18 1017.14 1017.46 1017.82 1018.02 1017.86 1018.06 1018.26 1018.34 1018.42 1018.54 1018.66 1018.70 1018.90 1018.90 1018.78 1018.66 1018.54 1018.38 1018.10 1018.02 1017.94 1018.02 1018.18 1018.26 1018.50 1018.46 1018.34 1018.30 1018.34 1018.38 1018.54 1018.54 1018.50 1018.30 1018.26 1018.30 1018.54 1018.62 1018.82 1018.86 1018.74
1017.38 1017.62 1017.34 1017.38 1017.26 1017.22 1016.94 1016.62 1016.42 1016.70 1016.66 1016.50 1016.30 1016.26 1016.22 1016.38 1016.42 1016.46 1016.82 1016.90 1017.26 1017.14 1017.50 1017.62 1017.90 1018.18 1018.02 1018.18 1018.50 1018.46 1018.54 1018.70 1018.78 1018.94 1018.98 1019.06 1019.10 1018.98 1018.74 1018.54 1018.38 1018.34 1018.38 1018.50 1018.58 1018.66 1018.82 1018.78 1018.70 1018.70 1018.70 1018.66 1018.58 1018.50 1018.50 1018.46 1018.46 1018.54 1018.70 1018.82 1018.86 1018.82 1018.70
1017.86 1017.58 1017.42 1017.38 1017.02 1016.86 1016.82 1016.78 1016.66 1016.54 1016.42 1016.58 1016.66 1016.62 1016.66 1016.70 1016.98 1017.10 1017.02 1016.90 1017.14 1017.30 1017.74 1017.74 1017.94 1018.26 1018.30 1018.26 1018.38 1018.66 1018.86 1018.94 1018.98 1019.10 1019.18 1019.18 1019.14 1019.02 1018.98 1018.94 1018.78 1018.82 1018.86 1018.90 1018.94 1018.94 1019.02 1018.86 1018.82 1018.90 1018.98 1018.94 1018.74 1018.70 1018.66 1018.58 1018.62 1018.82 1018.98 1018.98 1018.90 1018.82 1018.70
1017.74 1016.90 1017.02 1016.86 1017.42 1018.06 1017.18 1016.94 1016.78 1016.90 1016.70 1016.54 1016.78 1016.78 1016.86 1016.90 1017.10 1017.18 1017.42 1017.54 1017.42 1017.50 1017.66 1017.66 1017.78 1018.18 1018.50 1018.54 1018.42 1018.70 1018.94 1019.02 1019.18 1019.22 1019.26 1019.26 1019.22 1019.26 1019.18 1019.10 1019.02 1019.06 1019.10 1019.10 1019.26 1019.30 1019.30 1019.10 1019.06 1019.10 1019.14 1019.10 1019.02 1018.82 1018.78 1018.70 1018.62 1018.82 1018.94 1018.98 1019.06 1019.18 1019.14
1015.98 1015.46 1015.70 1015.86 1015.78 1015.94 1016.30 1016.42 1016.86 1016.86 1016.66 1016.50 1016.82 1017.02 1017.10 1017.14 1017.14 1017.22 1017.38 1017.70 1017.94 1018.02 1017.98 1017.66 1017.74 1018.18 1018.34 1018.58 1018.46 1018.58 1018.86 1019.22 1019.30 1019.26 1019.26 1019.30 1019.38 1019.38 1019.18 1019.14 1019.22 1019.26 1019.30 1019.30 1019.42 1019.58 1019.58 1019.42 1019.34 1019.30 1019.30 1019.22 1019.14 1019.02 1018.94 1018.86 1018.74 1018.78 1018.82 1018.98 1019.06 1019.18 1019.30
1015.50 1015.14 1015.18 1015.74 1015.62 1016.22 1016.58 1016.54 1016.82 1016.90 1016.70 1016.58 1017.06 1017.18 1017.14 1017.18 1017.22 1017.22 1017.38 1017.50 1017.86 1018.18 1018.14 1018.18 1018.02 1018.18 1018.38 1018.42 1018.42 1018.90 1019.18 1019.34 1019.30 1019.34 1019.30 1019.26 1019.34 1019.38 1019.30 1019.26 1019.34 1019.38 1019.42 1019.42 1019.54 1019.74 1019.74 1019.70 1019.70 1019.58 1019.54 1019.50 1019.42 1019.22 1019.14 1019.02 1018.94 1018.98 1019.02 1019.10 1019.34 1019.38 1019.42
1014.66 1015.06 1015.14 1015.78 1015.74 1015.86 1016.14 1016.62 1016.86 1016.90 1016.98 1016.70 1017.02 1017.34 1017.34 1017.42 1017.38 1017.22 1017.54 1017.82 1017.74 1017.90 1018.26 1018.42 1018.38 1018.26 1018.38 1018.54 1018.62 1018.94 1019.18 1019.38 1019.38 1019.46 1019.46 1019.50 1019.54 1019.46 1019.46 1019.42 1019.46 1019.46 1019.50 1019.58 1019.62 1019.70 1019.66 1019.70 1019.74 1019.70 1019.78 1019.78 1019.66 1019.54 1019.38 1019.26 1019.18 1019.30 1019.34 1019.30 1019.42 1019.50 1019.58
Wind_Speed
11 11 9 8 10 5 7 6 6 2 3 3 3 2 1 1 3 4 3 5 4 4 5 1 4 5 9 11 12 14 13 10 12 12 13 14 13 13 13 13 12 13 13 13 13 14 13 13 13 13 13 14 14 13 12 13 12 12 12 12 12 11 10
1 1 7 8 2 6 7 7 4 6 3 4 2 5 2 2 3 1 3 5 3 3 1 2 3 6 9 12 12 14 10 11 14 14 13 14 14 14 14 14 13 14 14 15 13 13 14 15 16 15 14 14 13 13 14 14 13 13 13 13 12 11 11
4 6 10 7 2 4 2 2 8 6 1 5 1 2 5 4 4 3 2 4 5 5 3 2 2 6 8 11 12 12 11 11 14 14 13 11 13 12 12 13 12 13 13 13 13 14 15 14 14 14 13 13 12 12 13 15 15 15 14 12 12 10 11
2 5 8 7 7 4 6 8 5 3 5 3 4 3 5 3 2 1 1 2 1 2 3 7 7 7 9 10 11 15 12 11 10 9 8 9 10 11 12 12 13 13 14 15 15 15 14 14 14 13 13 12 13 13 13 13 13 12 13 13 11 11 12
3 5 2 4 7 7 5 5 5 3 2 2 7 5 8 5 4 3 3 3 2 1 2 7 9 7 9 12 14 13 13 11 9 9 9 10 10 11 13 13 13 13 13 14 14 14 13 13 12 12 13 14 13 12 13 13 13 13 14 14 12 11 11
3 1 1 3 1 0 3 5 7 8 6 8 8 5 6 4 4 3 2 3 1 1 5 7 7 6 7 11 11 12 15 13 11 9 9 9 10 10 12 13 13 13 13 14 13 11 10 11 11 13 12 12 12 12 12 12 12 11 12 13 12 11 10
3 1 2 5 5 3 5 4 3 2 4 4 2 2 1 1 2 3 1 3 0 2 8 7 7 5 5 9 10 8 9 13 13 10 9 9 11 11 12 14 13 13 13 14 13 14 14 13 13 13 11 11 12 12 11 11 11 12 11 12 11 10 10
2 6 6 6 7 3 9 3 2 5 5 4 4 5 3 7 5 5 2 3 1 4 8 8 7 5 1 3 8 8 8 8 10 11 10 10 9 9 9 11 11 11 12 12 11 12 12 11 11 12 11 11 11 10 11 11 12 12 11 10 10 10 10
3 6 5 2 6 6 5 3 4 5 2 4 1 4 3 6 7 4 5 5 1 4 7 8 8 8 6 4 4 7 8 8 11 12 10 8 7 7 9 11 11 11 11 12 11 12 12 12 12 11 11 11 11 11 10 11 11 11 11 10 10 10 11
3 3 0 2 5 7 9 3 7 4 3 4 2 4 5 5 1 2 2 4 3 3 7 9 9 8 7 6 3 3 5 9 11 12 9 8 7 7 9 10 10 13 12 11 11 11 10 11 12 11 11 11 11 10 11 11 10 10 10 9 10 9 10
4 4 5 3 3 5 4 9 8 9 3 3 8 2 5 7 3 5 2 2 3 5 8 10 9 8 7 6 4 2 3 4 7 9 8 7 6 7 9 10 9 8 8 11 12 11 11 12 12 11 12 11 11 11 11 11 10 10 10 9 10 10 10
11 10 8 7 10 8 8 10 11 10 5 6 10 9 6 1 1 7 4 2 3 4 6 7 8 7 5 5 5 2 2 3 5 7 8 9 7 5 4 6 8 10 10 10 10 11 11 11 11 11 11 11 11 11 12 11 10 10 8 10 10 10 10
10 8 7 8 8 6 6 8 11 12 10 4 9 4 2 4 6 4 6 5 5 3 5 6 7 7 5 5 5 5 4 5 6 8 9 9 8 5 5 4 5 7 8 8 9 10 11 12 12 12 11 11 10 9 8 8 9 10 9 9 10 10 10
7 7 7 7 7 4 7 7 12 13 12 6 2 4 3 5 2 7 9 9 7 4 4 5 6 6 6 5 4 5 6 6 6 7 8 7 5 6 5 4 2 3 4 5 6 7 8 10 11 12 11 11 11 12 11 10 10 9 9 10 9 10 11
5 4 5 6 5 2 3 3 8 11 14 10 1 7 8 8 8 9 11 10 7 4 4 6 6 7 7 8 9 8 6 5 8 4 6 6 6 6 6 5 4 3 2 1 4 7 8 9 10 10 10 10 10 10 10 10 10 10 10 10 10 10 10
3 5 5 2 2 5 1 4 10 11 12 8 3 3 3 5 8 10 10 8 5 4 5 7 8 9 10 10 10 9 8 8 8 8 7 6 6 7 6 6 5 4 3 1 1 3 4 6 8 8 8 8 9 10 10 10 9 9 9 10 10 10 9
3 6 4 3 7 5 2 5 3 7 11 13 1 5 9 7 5 9 6 5 5 6 6 8 8 11 12 11 10 9 10 10 10 10 8 7 7 6 5 5 6 6 5 5 5 4 3 3 3 3 3 6 7 6 6 7 7 9 10 9 9 8 8
3 4 0 4 1 4 3 3 5 4 8 12 10 3 5 6 4 5 5 9 9 9 8 10 11 12 9 8 8 10 9 9 10 10 11 9 8 7 6 5 5 5 4 3 3 3 4 5 3 1 1 3 4 4 5 5 7 7 8 9 9 9 9
2 1 5 1 3 1 3 2 3 5 5 7 9 9 8 7 7 8 11 11 11 10 9 10 11 12 12 12 12 13 12 11 10 10 9 9 8 8 7 6 5 5 4 4 3 3 3 4 5 4 3 2 4 5 6 7 6 7 7 8 9 9 9
3 1 1 1 5 1 5 5 3 4 2 4 5 7 7 9 5 3 8 11 10 10 10 9 9 9 10 12 13 12 11 10 9 9 8 8 8 7 6 5 6 5 5 5 5 5 3 2 3 2 3 3 3 4 3 4 5 6 7 7 7 7 8
2 1 1 2 1 2 1 5 2 3 2 2 3 3 2 0 6 5 4 9 9 10 9 7 4 4 8 11 10 11 10 9 9 9 9 8 8 7 7 6 6 5 5 6 6 4 3 1 3 5 5 2 1 2 4 4 4 5 7 7 6 7 7
1 3 2 1 2 1 3 4 2 2 4 5 5 3 2 4 3 2 1 8 8 9 8 6 4 0 5 9 8 9 9 9 9 9 9 9 9 9 8 7 7 7 6 6 8 8 6 3 1 2 4 5 6 6 5 6 5 4 5 6 6 6 4
3 2 3 3 4 2 2 6 3 3 3 5 10 3 2 1 5 4 3 6 5 6 5 6 1 4 5 6 7 6 8 8 8 8 9 9 8 9 9 9 8 8 7 7 7 8 8 6 3 3 3 4 5 6 5 5 5 5 4 4 4 5 6
2 3 4 3 2 1 3 3 1 3 2 5 6 4 3 6 4 3 1 3 3 4 5 5 8 5 7 6 5 5 7 7 8 8 8 8 9 9 9 9 10 10 9 11 12 11 10 6 4 5 5 6 6 6 6 5 4 3 3 3 3 4 5
3 4 1 1 2 1 1 2 4 2 2 4 4 2 3 3 3 2 2 3 4 4 4 5 9 9 8 8 6 6 6 8 9 8 8 8 9 10 10 9 10 11 12 12 13 12 10 9 8 6 6 7 7 8 8 8 6 4 4 4 3 3 4
3 2 3 0 2 2 2 3 3 0 2 2 1 2 2 2 3 3 3 5 5 6 9 10 9 9 9 8 7 8 9 9 8 8 8 9 9 9 9 10 9 9 12 13 12 11 11 12 11 9 9 10 9 9 9 8 6 5 6 5 5 5 6
1 1 2 1 2 3 3 5 0 2 3 3 2 4 3 3 4 6 6 6 7 10 12 12 11 11 9 8 8 8 8 8 8 7 8 9 10 9 10 11 11 11 12 12 12 11 9 10 9 9 12 14 12 11 12 11 9 7 7 8 8 6 6
1 3 4 0 3 3 3 2 0 1 2 3 5 4 4 4 5 6 7 7 9 12 12 12 10 9 9 8 8 8 7 7 7 7 7 8 9 10 11 11 11 12 13 12 12 11 10 10 9 10 12 12 10 11 11 6 8 8 8 8 7 7 9
2 1 3 1 2 3 2 1 1 1 1 1 3 4 6 6 6 7 8 10 10 11 12 12 11 8 8 8 8 8 6 7 7 7 6 7 8 9 9 10 10 11 12 13 12 12 10 11 9 10 9 11 10 11 6 5 7 8 8 8 8 8 8
2 1 2 2 1 1 2 2 1 0 3 2 4 8 8 7 7 8 9 10 8 8 9 11 9 8 7 8 8 7 7 7 6 6 6 6 7 8 8 9 9 9 10 12 13 13 12 11 9 7 7 8 10 5 3 5 5 7 7 7 7 7 6
2 3 1 2 3 1 2 3 3 3 2 3 3 7 8 9 8 9 10 9 7 6 6 8 8 7 6 7 6 6 6 7 7 7 6 6 6 6 7 6 7 8 9 10 11 12 12 10 9 9 9 8 6 4 5 5 7 5 6 7 7 4 4
0 4 4 2 1 1 1 1 3 6 6 6 5 7 9 9 9 9 7 7 7 7 8 8 8 7 6 7 5 5 6 6 6 6 6 6 5 5 5 6 7 8 9 10 10 10 9 8 8 8 8 7 7 6 6 5 6 6 6 5 5 5 5
3 3 1 3 4 4 3 3 3 4 7 9 9 8 9 9 9 8 6 5 6 7 8 8 8 8 6 5 5 5 4 5 5 6 5 5 5 5 6 5 6 7 7 8 8 9 8 7 8 9 8 7 7 7 6 5 5 7 7 7 6 6 6
4 6 8 10 7 5 3 3 4 4 5 9 11 10 10 10 10 8 9 8 7 8 7 8 9 9 6 4 4 5 3 4 5 5 6 5 5 5 3 3 5 6 6 7 7 7 6 6 7 8 8 7 7 7 6 6 6 7 7 6 7 6 5
2 4 9 6 3 8 5 6 5 4 4 8 10 10 9 9 8 8 10 11 9 8 5 4 8 7 6 5 5 5 4 4 3 4 5 6 5 4 3 5 5 5 5 6 7 6 5 5 6 7 7 7 7 7 6 5 6 7 6 6 6 6 6
2 3 10 6 5 8 6 6 5 4 2 6 8 6 7 8 8 9 8 8 10 8 7 6 6 7 6 5 5 7 6 4 5 5 4 5 5 4 3 4 4 5 5 5 6 5 4 4 5 5 7 7 6 6 6 5 5 6 6 6 6 6 5
2 5 8 4 5 8 7 6 5 4 2 3 8 7 8 8 7 8 9 8 7 9 8 8 6 5 7 7 7 7 6 6 5 5 5 4 4 4 5 5 5 5 4 3 3 3 3 4 5 5 6 5 5 6 6 6 6 5 5 5 6 6 5
Wind_Direction
198 192 155 170 169 207 155 171 207 196 75 192 99 135 75 268 240 245 161 264 239 264 234 192 174 162 185 178 186 197 202 185 178 182 182 183 184 179 181 185 185 183 178 179 181 181 183 182 182 185 185 186 188 188 190 193 194 189 189 190 192 193 192
316 257 169 156 274 131 131 207 173 81 58 30 258 255 183 238 272 250 184 246 287 346 271 48 164 173 167 180 182 191 178 174 185 189 185 183 185 182 181 182 181 179 179 180 183 184 184 185 187 187 188 187 186 188 190 191 191 193 194 192 193 193 193
64 163 154 138 124 287 233 42 138 199 173 204 29 286 234 223 234 272 214 254 269 240 262 59 195 206 187 184 180 181 180 180 189 189 183 182 184 177 180 184 181 182 184 183 181 183 186 188 188 189 187 185 186 190 192 194 195 196 196 195 194 194 196
117 171 178 180 162 115 75 121 115 49 113 115 66 254 294 291 296 258 186 210 341 73 331 324 299 241 204 184 183 192 184 183 182 173 164 165 172 179 181 184 184 186 188 187 186 184 183 184 186 188 186 186 191 190 190 197 197 194 194 197 193 194 196
194 171 209 224 191 169 137 159 167 178 94 109 132 248 265 274 292 296 314 294 96 89 339 308 293 278 216 193 190 189 188 192 183 172 169 176 176 177 184 186 186 186 187 190 189 188 187 184 186 185 186 188 192 190 192 194 193 193 194 195 193 196 195
202 247 211 323 326 22 158 176 186 180 168 164 202 209 242 246 260 265 295 305 92 32 353 322 309 292 239 209 200 191 188 188 187 182 166 168 179 180 184 186 187 188 187 189 186 182 178 176 183 188 190 189 189 192 192 193 195 197 197 198 196 195 195
5 351 327 307 300 107 125 264 203 179 120 131 173 238 169 301 254 299 312 294 216 28 354 344 335 313 255 210 199 196 189 188 184 189 175 174 183 182 185 188 189 188 186 186 185 180 180 182 185 187 186 188 189 190 188 189 192 195 195 198 197 193 194
166 106 97 80 21 175 167 115 119 171 187 189 190 226 331 312 316 277 301 252 49 39 7 2 3 2 336 184 193 186 178 182 178 178 182 182 187 187 184 187 186 185 184 182 181 180 180 181 182 185 187 186 188 189 190 191 198 197 196 197 195 191 194
135 113 156 82 18 11 43 349 14 342 51 105 84 299 20 284 273 266 262 275 210 35 9 16 27 40 54 97 155 191 183 181 187 186 176 175 179 170 178 179 180 178 180 181 184 183 183 185 187 188 188 187 189 190 188 194 200 200 198 196 197 195 198
178 139 204 1 341 332 316 318 344 355 291 143 209 251 228 247 220 134 230 269 65 20 21 26 30 39 52 50 87 153 196 186 188 186 171 161 166 170 171 177 178 182 184 183 182 183 184 187 188 186 187 190 191 190 194 195 195 195 195 191 195 194 196
102 79 83 52 316 285 318 343 339 337 300 227 241 295 233 236 211 224 221 327 120 30 17 20 23 29 37 44 60 108 155 166 179 172 152 152 152 161 169 174 180 176 176 184 187 185 187 192 193 191 189 192 190 191 194 194 193 190 187 186 188 193 195
106 115 99 65 46 31 3 3 354 338 314 214 205 209 229 54 247 249 117 184 139 58 25 18 24 26 36 42 47 78 139 130 154 154 135 129 132 127 131 158 172 182 189 191 188 187 189 192 195 194 194 194 192 192 194 193 188 188 187 188 191 196 197
125 112 92 84 56 8 334 3 4 350 330 240 208 225 157 197 234 278 132 139 117 60 22 17 26 22 25 32 41 63 88 114 114 121 127 130 131 124 130 146 174 188 192 196 195 194 195 194 196 196 195 195 191 189 191 187 186 191 186 186 191 194 200
127 115 102 84 78 355 322 0 352 350 331 305 212 125 151 202 178 124 132 116 86 65 37 27 27 32 42 49 60 69 82 95 79 80 116 116 104 117 108 99 117 179 201 206 209 206 202 198 198 199 197 194 192 192 191 184 185 185 181 187 191 198 206
119 103 88 72 79 267 307 339 358 349 338 286 276 110 114 126 123 129 129 116 92 60 53 61 52 54 61 60 58 60 64 74 110 111 56 48 62 60 65 63 50 53 42 284 227 218 216 211 205 201 196 191 189 193 190 186 185 183 181 185 191 193 201
128 156 123 96 241 240 159 32 11 346 341 287 237 122 123 171 154 147 131 110 92 91 82 76 70 64 54 50 50 53 56 68 70 77 72 62 41 48 39 36 47 46 36 18 317 287 270 246 226 214 205 195 192 197 190 186 180 174 180 187 191 194 197
164 115 142 213 229 207 124 26 15 351 314 312 290 70 56 38 166 151 133 111 97 88 83 77 69 64 52 40 44 51 58 59 66 66 70 69 65 62 45 35 35 43 38 31 27 24 9 337 273 246 218 201 196 201 196 184 167 175 186 187 186 188 189
124 77 309 254 34 10 14 109 153 114 294 309 324 8 356 10 17 110 97 105 98 89 78 74 71 70 66 66 44 48 51 56 59 60 58 60 60 56 51 38 25 16 6 6 12 8 14 10 343 349 150 180 143 148 149 148 178 183 181 190 188 190 195
130 99 303 301 56 287 53 79 155 175 227 260 289 319 6 360 8 97 105 96 93 86 80 81 79 73 66 54 53 48 42 48 56 56 52 45 44 43 44 48 42 28 343 331 316 317 323 1 14 24 41 93 136 144 153 160 166 164 165 171 186 186 180
91 168 42 193 241 306 306 319 348 104 86 302 284 300 321 345 354 12 101 107 100 92 85 78 82 83 76 64 51 46 44 39 45 55 56 52 51 48 37 41 34 25 16 356 330 306 336 326 279 317 27 43 98 119 107 127 150 161 159 157 159 160 161
191 143 198 10 2 342 315 334 263 157 180 205 299 294 334 71 306 334 100 102 109 107 94 86 76 67 74 61 47 38 42 47 45 49 51 49 50 48 46 45 44 35 40 31 19 355 340 235 257 267 250 232 317 95 121 125 143 162 173 164 146 148 141
158 153 106 94 88 235 219 158 156 190 215 178 177 256 250 296 197 217 256 128 149 126 106 63 20 241 75 54 44 28 35 39 50 51 52 54 54 54 51 52 50 48 51 57 53 52 52 54 335 200 186 176 176 166 168 163 158 169 176 166 149 136 127
163 196 188 177 187 193 85 148 206 212 235 218 162 168 296 250 266 171 198 155 129 110 80 37 356 158 83 68 52 37 38 38 39 52 54 59 59 54 50 44 43 43 47 57 62 61 60 56 47 99 94 123 132 124 129 153 176 180 154 72 80 108 120
212 177 204 214 225 96 163 173 264 287 227 197 211 233 161 152 242 286 336 124 118 75 54 54 64 95 116 97 76 55 58 53 48 50 53 51 55 57 58 57 57 53 49 49 49 48 44 29 44 80 87 90 91 98 99 113 128 134 72 89 111 96 109
153 206 156 337 215 162 25 0 329 344 209 235 252 22 81 113 161 3 28 74 64 65 58 72 89 72 84 101 102 82 71 62 55 52 58 58 62 63 62 60 60 62 55 53 53 50 48 41 40 47 67 74 72 72 76 71 60 40 57 88 98 101 125
184 165 219 232 343 64 14 339 321 128 223 214 337 45 43 107 93 64 90 103 93 96 100 101 95 101 104 101 95 84 70 66 56 51 53 60 63 62 59 55 57 64 64 62 54 47 45 48 44 45 59 63 57 56 54 48 40 50 77 84 93 103 96
68 207 158 98 223 109 14 340 283 177 278 23 94 120 94 83 89 104 107 113 113 115 108 105 109 112 105 96 90 80 72 68 58 46 40 50 55 53 52 57 60 67 68 61 56 54 47 49 47 54 63 60 55 51 50 39 33 36 54 72 80 77 83
273 184 201 140 24 8 32 300 277 62 6 101 135 118 109 96 103 110 114 113 124 122 117 117 114 110 106 103 98 87 78 79 76 66 58 58 62 65 63 62 59 66 71 69 66 56 50 47 47 51 64 69 51 47 39 37 54 51 51 56 67 75 81
300 26 63 58 340 340 357 277 350 0 351 218 149 111 118 122 113 121 118 125 124 120 121 117 115 106 99 97 93 90 77 73 70 69 58 57 60 62 64 62 61 66 68 70 68 64 57 55 49 54 55 65 67 59 31 24 53 60 51 51 55 56 57
172 18 0 335 57 38 45 116 286 130 114 92 128 127 118 113 122 126 124 131 119 120 125 121 112 107 112 107 100 98 94 89 82 80 76 67 64 67 66 63 62 72 74 73 71 68 60 57 58 54 54 61 67 56 49 62 66 75 74 64 58 60 60
203 114 151 94 67 13 46 61 79 79 74 91 113 119 116 124 125 123 127 132 128 119 121 112 114 115 113 103 95 94 97 91 86 83 75 60 51 57 65 58 60 61 65 67 66 66 63 53 55 55 54 57 67 73 67 77 83 82 88 92 89 65 55
337 112 125 89 54 328 306 305 115 105 99 90 86 106 117 120 119 120 123 124 118 127 118 122 122 117 113 112 106 103 97 96 92 87 82 83 76 55 62 67 71 71 65 66 62 60 60 56 61 59 52 48 41 50 61 68 80 81 81 87 94 91 76
95 73 125 148 135 109 86 87 65 90 122 120 118 115 118 119 114 112 107 109 124 125 122 128 125 118 109 105 113 107 106 107 99 93 87 78 75 75 74 57 63 73 73 69 64 63 56 49 58 62 60 53 46 48 51 61 76 83 84 80 75 73 71
178 179 168 172 151 154 157 154 129 125 125 125 125 128 125 124 124 123 117 105 102 112 131 137 133 127 126 122 127 114 100 103 106 110 108 99 91 79 65 68 74 79 73 77 74 66 54 49 55 59 57 55 49 49 44 42 52 72 79 83 82 76 74
197 144 159 185 41 118 136 142 136 136 145 132 131 133 133 129 123 122 124 123 118 114 106 121 132 128 131 131 127 116 108 98 107 116 124 120 112 96 89 86 70 71 78 88 90 79 69 61 61 55 52 46 46 44 38 37 41 54 65 71 72 76 75
19 150 153 162 150 140 154 143 139 139 149 115 106 105 117 126 126 125 119 119 122 114 108 93 98 112 111 111 110 100 92 95 117 124 120 116 114 110 86 91 85 79 78 78 82 87 86 83 79 72 65 49 36 39 35 37 45 47 48 62 70 73 77
132 151 138 134 101 105 110 119 113 120 141 118 118 119 123 122 116 119 117 110 110 115 109 100 85 85 100 99 95 94 93 91 98 109 115 113 114 118 116 107 95 84 72 59 61 61 67 72 72 70 70 60 49 42 36 41 52 61 52 58 71 81 89